�������l�o���
Date,Time,MP-1(��Sv/h),MP-2(��Sv/h),MP-3(��Sv/h),MP-4(��Sv/h),MP-5(��Sv/h),MP-6(��Sv/h),MP-7(��Sv/h),MP-8(��Sv/h),����,����(m/s),���J
2023/07/12,00:00,0.517,0.787,0.486,0.942,0.692,0.322,0.560,0.527,���쐼,3.1,��
2023/07/12,00:10,0.517,0.787,0.485,0.942,0.691,0.321,0.560,0.528,�쐼,4.1,��
2023/07/12,00:20,0.518,0.789,0.485,0.944,0.692,0.322,0.560,0.527,���쐼,4.2,��
2023/07/12,00:30,0.519,0.788,0.484,0.942,0.694,0.320,0.561,0.529,���쐼,4.2,��
2023/07/12,00:40,0.519,0.789,0.485,0.942,0.693,0.321,0.561,0.528,��,4.6,��
2023/07/12,00:50,0.518,0.787,0.483,0.943,0.692,0.323,0.561,0.529,���쐼,4.4,��
2023/07/12,01:00,0.517,0.786,0.485,0.944,0.690,0.323,0.561,0.529,��,3.4,��
2023/07/12,01:10,0.519,0.788,0.486,0.942,0.691,0.323,0.561,0.529,���k��,3.2,��
2023/07/12,01:20,0.517,0.789,0.486,0.944,0.692,0.321,0.560,0.527,���k��,3.6,��
2023/07/12,01:30,0.519,0.789,0.486,0.946,0.689,0.322,0.559,0.529,�k��,5.6,��
2023/07/12,01:40,0.519,0.789,0.484,0.944,0.692,0.323,0.560,0.529,���k��,7.6,��
2023/07/12,01:50,0.520,0.790,0.487,0.944,0.691,0.323,0.561,0.529,���k��,8.6,��
2023/07/12,02:00,0.520,0.787,0.486,0.945,0.694,0.323,0.560,0.528,���k��,7.6,��
2023/07/12,02:10,0.519,0.791,0.485,0.943,0.690,0.321,0.560,0.528,���k��,6.8,��
2023/07/12,02:20,0.518,0.791,0.485,0.944,0.692,0.323,0.559,0.528,��,4.9,��
2023/07/12,02:30,0.518,0.788,0.487,0.943,0.691,0.322,0.560,0.529,��,4.7,��
2023/07/12,02:40,0.519,0.789,0.486,0.947,0.692,0.322,0.561,0.528,��,5.2,��
2023/07/12,02:50,0.518,0.789,0.486,0.944,0.694,0.322,0.561,0.526,���쐼,4.2,��
2023/07/12,03:00,0.518,0.788,0.484,0.944,0.692,0.321,0.560,0.528,��,5.5,��
2023/07/12,03:10,0.518,0.789,0.485,0.946,0.692,0.321,0.561,0.529,���쐼,3.4,��
2023/07/12,03:20,0.518,0.790,0.485,0.945,0.691,0.322,0.560,0.528,�쐼,1.7,��
2023/07/12,03:30,0.518,0.790,0.484,0.943,0.691,0.321,0.559,0.528,��,0.9,��
2023/07/12,03:40,0.519,0.790,0.485,0.944,0.694,0.321,0.560,0.527,��쓌,1.9,��
2023/07/12,03:50,0.519,0.789,0.485,0.946,0.691,0.321,0.561,0.527,��,2.0,��
2023/07/12,04:00,0.519,0.790,0.485,0.942,0.693,0.321,0.560,0.528,��,2.0,��
2023/07/12,04:10,0.519,0.789,0.486,0.947,0.692,0.320,0.560,0.529,��,3.4,��
2023/07/12,04:20,0.519,0.790,0.484,0.944,0.694,0.321,0.560,0.529,��,4.8,��
2023/07/12,04:30,0.518,0.789,0.486,0.945,0.692,0.321,0.561,0.527,��,5.1,��
2023/07/12,04:40,0.518,0.789,0.485,0.945,0.693,0.323,0.561,0.529,��,4.4,��
2023/07/12,04:50,0.519,0.790,0.486,0.945,0.693,0.321,0.559,0.528,��,3.0,��
2023/07/12,05:00,0.519,0.792,0.486,0.945,0.693,0.322,0.561,0.528,��,4.3,�L
2023/07/12,05:10,0.518,0.790,0.486,0.946,0.692,0.323,0.561,0.529,��,5.0,��
2023/07/12,05:20,0.521,0.790,0.486,0.944,0.692,0.321,0.562,0.528,��,4.1,��
2023/07/12,05:30,0.519,0.790,0.486,0.947,0.693,0.322,0.561,0.529,��,4.0,��
2023/07/12,05:40,0.519,0.791,0.485,0.946,0.693,0.322,0.560,0.527,��쐼,4.1,��
2023/07/12,05:50,0.517,0.791,0.485,0.945,0.693,0.322,0.561,0.529,��쐼,3.9,��
2023/07/12,06:00,0.519,0.790,0.487,0.946,0.693,0.321,0.562,0.528,��쐼,3.3,��
2023/07/12,06:10,0.517,0.791,0.486,0.946,0.693,0.321,0.561,0.528,��쐼,3.3,��
2023/07/12,06:20,0.518,0.788,0.487,0.944,0.690,0.322,0.561,0.528,��,3.8,��
2023/07/12,06:30,0.519,0.789,0.488,0.946,0.691,0.324,0.562,0.528,��,4.1,��
2023/07/12,06:40,0.518,0.789,0.485,0.946,0.691,0.323,0.562,0.528,��,4.1,��
2023/07/12,06:50,0.520,0.788,0.487,0.945,0.693,0.322,0.561,0.529,��,4.4,��
2023/07/12,07:00,0.518,0.789,0.487,0.947,0.694,0.322,0.563,0.528,��,3.9,��
2023/07/12,07:10,0.519,0.788,0.485,0.948,0.691,0.323,0.561,0.527,��,3.2,��
2023/07/12,07:20,0.518,0.789,0.487,0.946,0.691,0.321,0.562,0.529,��,4.2,��
2023/07/12,07:30,0.519,0.788,0.485,0.945,0.692,0.321,0.561,0.529,��,4.5,��
2023/07/12,07:40,0.519,0.788,0.485,0.945,0.693,0.322,0.560,0.529,��쓌,5.5,��
2023/07/12,07:50,0.519,0.790,0.486,0.946,0.692,0.323,0.562,0.530,��쓌,6.3,��
2023/07/12,08:00,0.518,0.790,0.486,0.947,0.694,0.322,0.562,0.530,��쓌,6.7,��
2023/07/12,08:10,0.519,0.789,0.485,0.947,0.694,0.322,0.562,0.530,��쓌,7.4,��
2023/07/12,08:20,0.520,0.792,0.485,0.945,0.696,0.322,0.565,0.528,��쓌,8.8,��
2023/07/12,08:30,0.520,0.790,0.485,0.947,0.693,0.323,0.565,0.527,��쓌,7.1,��
2023/07/12,08:40,0.520,0.791,0.486,0.948,0.692,0.322,0.563,0.528,��,6.4,��
2023/07/12,08:50,0.520,0.791,0.486,0.948,0.695,0.321,0.563,0.528,��쓌,8.5,��
2023/07/12,09:00,0.519,0.791,0.485,0.948,0.694,0.322,0.565,0.528,��쓌,10.3,��
2023/07/12,09:10,0.522,0.792,0.487,0.948,0.694,0.322,0.563,0.528,��쓌,10.2,��
2023/07/12,09:20,0.521,0.790,0.485,0.950,0.696,0.322,0.564,0.528,��,9.8,��
2023/07/12,09:30,0.519,0.792,0.487,0.946,0.695,0.322,0.563,0.528,��쓌,9.6,��
2023/07/12,09:40,0.521,0.790,0.486,0.946,0.690,0.322,0.562,0.529,��쓌,10.5,��
2023/07/12,09:50,0.522,0.791,0.485,0.948,0.694,0.321,0.564,0.528,��쓌,10.5,��
2023/07/12,10:00,0.522,0.794,0.486,0.948,0.694,0.322,0.563,0.528,��쓌,9.1,��
2023/07/12,10:10,0.521,0.793,0.485,0.948,0.697,0.322,0.564,0.528,��쓌,7.5,��
2023/07/12,10:20,0.522,0.793,0.486,0.948,0.696,0.323,0.562,0.528,��쓌,8.4,��
2023/07/12,10:30,0.522,0.793,0.488,0.950,0.696,0.321,0.561,0.528,��쓌,10.5,��
2023/07/12,10:40,0.523,0.793,0.487,0.948,0.697,0.322,0.562,0.529,��쓌,10.8,��
2023/07/12,10:50,0.522,0.796,0.487,0.949,0.698,0.323,0.563,0.528,��쓌,11.6,��
2023/07/12,11:00,0.523,0.794,0.486,0.950,0.696,0.323,0.563,0.529,��쓌,13.3,��
2023/07/12,11:10,0.522,0.794,0.486,0.949,0.689,0.322,0.562,0.530,��쓌,10.6,��
2023/07/12,11:20,0.523,0.795,0.489,0.951,0.690,0.322,0.562,0.529,��쓌,9.7,��
2023/07/12,11:30,0.524,0.795,0.487,0.948,0.691,0.322,0.563,0.529,��,5.8,��
2023/07/12,11:40,0.524,0.796,0.487,0.949,0.685,0.321,0.561,0.530,��,4.9,��
2023/07/12,11:50,0.523,0.796,0.489,0.949,0.686,0.323,0.562,0.530,��,5.5,��
2023/07/12,12:00,0.523,0.795,0.489,0.951,0.691,0.323,0.563,0.530,��쓌,6.1,��
2023/07/12,12:10,0.524,0.794,0.490,0.949,0.689,0.322,0.562,0.528,��쐼,4.4,�L
2023/07/12,12:20,0.522,0.796,0.489,0.950,0.697,0.324,0.564,0.529,��,3.4,�L
2023/07/12,12:30,0.522,0.796,0.489,0.949,0.699,0.324,0.563,0.529,��쐼,4.5,��
2023/07/12,12:40,0.523,0.796,0.489,0.950,0.698,0.322,0.563,0.528,��쐼,7.6,�L
2023/07/12,12:50,0.523,0.796,0.490,0.951,0.699,0.323,0.560,0.529,��쐼,7.9,�L
2023/07/12,13:00,0.525,0.798,0.490,0.951,0.700,0.323,0.563,0.530,��쐼,7.1,�L
2023/07/12,13:10,0.525,0.799,0.490,0.951,0.700,0.323,0.562,0.531,�쐼,6.8,��
2023/07/12,13:20,0.523,0.798,0.491,0.952,0.700,0.324,0.563,0.530,��쐼,5.8,��
2023/07/12,13:30,0.526,0.800,0.492,0.952,0.699,0.324,0.563,0.529,�쐼,6.8,��
2023/07/12,13:40,0.525,0.799,0.489,0.953,0.699,0.324,0.562,0.529,���쐼,6.1,��
2023/07/12,13:50,0.524,0.800,0.490,0.953,0.699,0.321,0.561,0.530,�쐼,4.8,��
2023/07/12,14:00,0.525,0.800,0.491,0.955,0.702,0.322,0.561,0.528,��쐼,5.6,��
2023/07/12,14:10,0.526,0.797,0.491,0.955,0.701,0.323,0.563,0.528,��쐼,6.2,��
2023/07/12,14:20,0.528,0.799,0.490,0.953,0.702,0.323,0.562,0.529,��쐼,4.9,��
2023/07/12,14:30,0.526,0.798,0.489,0.954,0.701,0.322,0.562,0.529,�쐼,2.0,��
2023/07/12,14:40,0.524,0.797,0.489,0.952,0.699,0.323,0.562,0.528,�k��,3.1,��
2023/07/12,14:50,0.526,0.799,0.489,0.951,0.701,0.323,0.563,0.527,��,3.1,��
2023/07/12,15:00,0.525,0.799,0.490,0.951,0.699,0.321,0.562,0.529,�쐼,2.3,��
2023/07/12,15:10,0.524,0.799,0.490,0.949,0.698,0.322,0.561,0.529,��,3.5,��
2023/07/12,15:20,0.524,0.799,0.489,0.952,0.700,0.323,0.563,0.529,�쐼,2.6,��
2023/07/12,15:30,0.524,0.799,0.487,0.951,0.700,0.322,0.563,0.529,���쐼,1.4,��
2023/07/12,15:40,0.524,0.798,0.488,0.951,0.700,0.324,0.563,0.528,�쐼,2.6,��
2023/07/12,15:50,0.525,0.797,0.489,0.953,0.701,0.322,0.563,0.529,�쐼,4.2,��
2023/07/12,16:00,0.524,0.799,0.489,0.952,0.699,0.324,0.563,0.530,���쐼,3.5,��
2023/07/12,16:10,0.525,0.800,0.488,0.952,0.700,0.325,0.563,0.529,��,4.8,��
2023/07/12,16:20,0.525,0.798,0.488,0.951,0.701,0.324,0.564,0.529,��,4.1,��
2023/07/12,16:30,0.525,0.798,0.489,0.952,0.700,0.324,0.562,0.529,���k��,3.9,��
2023/07/12,16:40,0.523,0.798,0.487,0.953,0.700,0.324,0.564,0.529,���쐼,3.8,��
2023/07/12,16:50,0.525,0.798,0.489,0.955,0.699,0.324,0.563,0.530,��,3.1,��
2023/07/12,17:00,0.525,0.798,0.490,0.952,0.702,0.322,0.564,0.529,��,4.9,��
2023/07/12,17:10,0.525,0.799,0.490,0.953,0.701,0.323,0.562,0.530,���쐼,3.8,��
2023/07/12,17:20,0.525,0.797,0.491,0.954,0.701,0.323,0.563,0.530,���k��,1.9,��
2023/07/12,17:30,0.525,0.799,0.489,0.955,0.701,0.324,0.565,0.529,��,1.5,��
2023/07/12,17:40,0.525,0.800,0.490,0.957,0.702,0.325,0.564,0.529,���쐼,2.3,��
2023/07/12,17:50,0.525,0.798,0.490,0.955,0.701,0.324,0.564,0.529,��,3.8,��
2023/07/12,18:00,0.526,0.797,0.491,0.957,0.700,0.325,0.565,0.529,���k��,3.7,��
2023/07/12,18:10,0.527,0.798,0.491,0.954,0.701,0.324,0.564,0.529,���쐼,2.9,��
2023/07/12,18:20,0.526,0.801,0.489,0.954,0.701,0.325,0.565,0.530,��,2.8,��
2023/07/12,18:30,0.527,0.799,0.490,0.956,0.702,0.325,0.564,0.531,���쐼,4.8,��
2023/07/12,18:40,0.526,0.798,0.488,0.955,0.701,0.323,0.563,0.531,��,5.6,��
2023/07/12,18:50,0.524,0.799,0.490,0.953,0.703,0.324,0.563,0.531,��,5.0,��
2023/07/12,19:00,0.526,0.798,0.489,0.955,0.703,0.325,0.565,0.529,���k��,5.0,��
2023/07/12,19:10,0.525,0.800,0.492,0.954,0.703,0.323,0.565,0.530,���k��,6.3,��
2023/07/12,19:20,0.525,0.800,0.488,0.957,0.702,0.323,0.564,0.531,���k��,6.5,��
2023/07/12,19:30,0.526,0.800,0.490,0.955,0.703,0.325,0.565,0.531,���k��,6.0,��
2023/07/12,19:40,0.525,0.799,0.489,0.958,0.703,0.324,0.564,0.530,���k��,7.7,��
2023/07/12,19:50,0.528,0.801,0.489,0.959,0.703,0.325,0.564,0.529,���k��,8.2,��
2023/07/12,20:00,0.524,0.800,0.490,0.957,0.703,0.324,0.565,0.530,���k��,9.7,��
2023/07/12,20:10,0.526,0.801,0.489,0.957,0.703,0.324,0.564,0.531,���k��,8.1,��
2023/07/12,20:20,0.525,0.801,0.493,0.958,0.703,0.324,0.564,0.530,���k��,7.4,��
2023/07/12,20:30,0.525,0.802,0.490,0.957,0.701,0.323,0.563,0.530,��,7.6,��
2023/07/12,20:40,0.526,0.801,0.491,0.958,0.703,0.326,0.565,0.531,��,5.2,��
2023/07/12,20:50,0.526,0.800,0.491,0.957,0.702,0.324,0.564,0.530,��,5.0,��
2023/07/12,21:00,0.526,0.801,0.490,0.959,0.703,0.324,0.564,0.532,��,5.4,��
2023/07/12,21:10,0.526,0.800,0.490,0.957,0.703,0.325,0.564,0.532,���쐼,5.7,��
2023/07/12,21:20,0.525,0.801,0.489,0.958,0.703,0.325,0.566,0.532,�쐼,4.8,��
2023/07/12,21:30,0.525,0.800,0.490,0.958,0.704,0.324,0.564,0.531,���쐼,4.6,��
2023/07/12,21:40,0.526,0.801,0.491,0.956,0.703,0.325,0.562,0.530,���쐼,4.9,��
2023/07/12,21:50,0.526,0.800,0.489,0.959,0.703,0.325,0.565,0.531,��쐼,2.8,��
2023/07/12,22:00,0.527,0.802,0.489,0.957,0.701,0.325,0.563,0.530,��쐼,2.6,��
2023/07/12,22:10,0.526,0.801,0.490,0.955,0.703,0.323,0.564,0.530,�쐼,3.1,��
2023/07/12,22:20,0.526,0.800,0.490,0.957,0.702,0.324,0.564,0.529,��쐼,3.5,��
2023/07/12,22:30,0.526,0.800,0.492,0.958,0.703,0.324,0.564,0.531,��쐼,3.8,��
2023/07/12,22:40,0.526,0.799,0.489,0.957,0.704,0.324,0.564,0.531,��쐼,3.7,��
2023/07/12,22:50,0.526,0.802,0.490,0.958,0.703,0.325,0.564,0.530,��쐼,2.9,��
2023/07/12,23:00,0.527,0.801,0.491,0.959,0.702,0.325,0.564,0.530,��,2.6,��
2023/07/12,23:10,0.525,0.802,0.489,0.958,0.703,0.325,0.563,0.531,��쐼,2.5,��
2023/07/12,23:20,0.526,0.803,0.492,0.960,0.703,0.325,0.564,0.531,��쐼,2.8,��
2023/07/12,23:30,0.526,0.802,0.490,0.958,0.703,0.324,0.563,0.531,��쐼,2.0,��
2023/07/12,23:40,0.525,0.801,0.490,0.956,0.703,0.324,0.563,0.532,�쐼,2.3,��
2023/07/12,23:50,0.525,0.801,0.492,0.958,0.702,0.326,0.564,0.531,��쐼,1.7,��
